TimeCST,TemperatureF,Dew PointF,Humidity,Sea Level PressureIn,VisibilityMPH,Wind Direction,Wind SpeedMPH,Gust SpeedMPH,PrecipitationIn,Events,Conditions,WindDirDegrees,DateUTC
12:55 AM,21.6,12.2,67,30.06,10.0,NW,15.0,-,N/A,,Clear,310,2012-12-10 06:55:00
1:55 AM,20.5,12.2,70,30.03,10.0,WNW,11.5,-,N/A,,Mostly Cloudy,300,2012-12-10 07:55:00
2:55 AM,21.2,12.2,68,30.04,10.0,NW,15.0,18.4,N/A,,Overcast,310,2012-12-10 08:55:00
3:55 AM,21.2,12.6,69,30.03,10.0,WNW,11.5,-,N/A,,Overcast,300,2012-12-10 09:55:00
4:40 AM,21.2,12.2,68,30.05,10.0,NW,11.5,-,N/A,,Overcast,310,2012-12-10 10:40:00
4:55 AM,21.2,12.9,70,30.05,10.0,WNW,12.7,-,N/A,,Overcast,300,2012-12-10 10:55:00
5:55 AM,20.8,12.9,71,30.05,10.0,NW,15.0,-,N/A,,Overcast,310,2012-12-10 11:55:00
6:43 AM,21.2,12.2,68,30.08,10.0,WNW,13.8,-,N/A,,Overcast,300,2012-12-10 12:43:00
6:55 AM,20.8,12.9,71,30.08,10.0,NW,12.7,-,N/A,,Overcast,310,2012-12-10 12:55:00
7:55 AM,20.8,12.7,71,30.10,10.0,NW,8.1,-,N/A,,Overcast,310,2012-12-10 13:55:00
8:55 AM,21.7,13.1,69,30.10,10.0,WNW,8.1,-,N/A,,Overcast,300,2012-12-10 14:55:00
9:08 AM,21.2,12.2,68,30.10,10.0,WNW,12.7,-,N/A,,Overcast,300,2012-12-10 15:08:00
9:55 AM,23.0,13.3,66,30.10,10.0,NW,10.4,-,N/A,,Overcast,310,2012-12-10 15:55:00
10:55 AM,25.5,14.9,64,30.09,10.0,WNW,5.8,-,N/A,,Overcast,300,2012-12-10 16:55:00
11:55 AM,27.0,16.5,65,30.09,10.0,West,10.4,-,N/A,,Overcast,280,2012-12-10 17:55:00
12:55 PM,28.9,17.1,61,30.06,10.0,NW,9.2,-,N/A,,Overcast,320,2012-12-10 18:55:00
1:55 PM,30.4,18.1,60,30.06,10.0,WNW,9.2,-,N/A,,Mostly Cloudy,300,2012-12-10 19:55:00
2:21 PM,30.2,17.6,60,30.05,10.0,West,9.2,-,N/A,,Scattered Clouds,280,2012-12-10 20:21:00
2:55 PM,31.1,18.5,60,30.05,10.0,WNW,9.2,-,N/A,,Partly Cloudy,300,2012-12-10 20:55:00
3:55 PM,30.6,18.0,60,30.06,10.0,West,6.9,-,N/A,,Clear,270,2012-12-10 21:55:00
4:55 PM,27.5,17.4,66,30.06,10.0,West,8.1,-,N/A,,Clear,260,2012-12-10 22:55:00
5:55 PM,23.9,16.5,73,30.06,10.0,West,5.8,-,N/A,,Clear,260,2012-12-10 23:55:00
6:55 PM,22.3,15.6,76,30.06,10.0,SW,4.6,-,N/A,,Clear,230,2012-12-11 00:55:00
7:55 PM,19.2,14.5,82,30.08,10.0,SSW,4.6,-,N/A,,Clear,210,2012-12-11 01:55:00
8:55 PM,19.0,14.5,83,30.09,10.0,SW,4.6,-,N/A,,Clear,220,2012-12-11 02:55:00
9:55 PM,18.3,14.4,85,30.09,10.0,SSW,5.8,-,N/A,,Clear,200,2012-12-11 03:55:00
10:55 PM,17.8,14.2,86,30.09,10.0,SSW,6.9,-,N/A,,Clear,210,2012-12-11 04:55:00
11:55 PM,17.6,13.3,83,30.08,10.0,SSW,8.1,-,N/A,,Clear,200,2012-12-11 05:55:00